Location: Colonia Mina de C?rbuni
(46.1667°N, 22.7167°E)
Time: 06:22:12
(UTC+00:00)

CZ-4 R/B - Pass Details

Date: 04 February 2023
Orbit: 525 x 587 km, 97.7° (Epoch: 21 March)

Event Time Altitude Azimuth Distance (km) Brightness Sun altitude
Rises 17:58:43 0° 181° (S) 2,799 4.9 -24.6°
Reaches altitude 10° 18:00:57 10° 188° (S) 1,897 4.1 -25.0°
Maximum altitude 18:04:54 44° 261° (W) 803 2.5 -25.7°
Drops below altitude 10° 18:08:49 10° 334° (NNW) 1,882 4.4 -26.3°
Sets 18:11:02 0° 341° (NNW) 2,774 5.2 -26.7°
